ETH318 HKJK-FNLU

Flight info

Callsign ETH318
Flight time N/A
Altitude 40000
Route PARIN4B PARIN UM306 VNA
Aircraft A359/H-SDE2E3GHIJ3J4J5LM1ORWXY/LB1D1

Departure

Time N/A
Airport Jomo Kenyatta International Airport (HKJK)

Arrival

Time 2026-04-22 15:39
Airport Quatro de Fevereiro International Airport (FNLU)
Time Latitude Longitude Altitude Speed Heading
2026-04-22 12:10 -1.51624 35.97645 24589 ft 451 kts 246°
2026-04-22 12:10 -1.52831 35.94741 24813 ft 452 kts 246°
2026-04-22 12:11 -1.54037 35.91840 25004 ft 453 kts 246°
2026-04-22 12:11 -1.55248 35.88927 25196 ft 455 kts 246°
2026-04-22 12:11 -1.56464 35.86001 25387 ft 456 kts 246°
2026-04-22 12:11 -1.57684 35.83067 25592 ft 457 kts 246°
2026-04-22 12:12 -1.58890 35.80163 25803 ft 458 kts 246°
2026-04-22 12:12 -1.60116 35.77215 25979 ft 459 kts 246°
2026-04-22 12:12 -1.61343 35.74263 26175 ft 461 kts 246°
2026-04-22 12:12 -1.62579 35.71289 26301 ft 463 kts 246°
2026-04-22 12:13 -1.63815 35.68315 26539 ft 464 kts 246°
2026-04-22 12:13 -1.65051 35.65338 26785 ft 464 kts 246°
2026-04-22 12:13 -1.66288 35.62361 27004 ft 464 kts 246°
2026-04-22 12:13 -1.67529 35.59373 27250 ft 464 kts 246°
2026-04-22 12:14 -1.68770 35.56386 27494 ft 465 kts 246°
2026-04-22 12:14 -1.70012 35.53398 27709 ft 466 kts 246°
2026-04-22 12:14 -1.71255 35.50405 27950 ft 466 kts 246°
2026-04-22 12:14 -1.72498 35.47412 28203 ft 467 kts 246°
2026-04-22 12:15 -1.73728 35.44451 28432 ft 467 kts 246°
2026-04-22 12:15 -1.74976 35.41446 28693 ft 468 kts 246°
2026-04-22 12:15 -1.76215 35.38437 28947 ft 468 kts 247°
2026-04-22 12:15 -1.77241 35.35341 29208 ft 470 kts 253°
2026-04-22 12:16 -1.78070 35.32179 29446 ft 471 kts 255°
2026-04-22 12:16 -1.78832 35.28990 29703 ft 472 kts 256°
2026-04-22 12:16 -1.79565 35.25789 29973 ft 472 kts 256°
2026-04-22 12:16 -1.80292 35.22579 30195 ft 473 kts 256°
2026-04-22 12:17 -1.81023 35.19371 30413 ft 474 kts 256°
2026-04-22 12:17 -1.81764 35.16152 30631 ft 475 kts 256°
2026-04-22 12:17 -1.82512 35.12930 30846 ft 477 kts 256°
2026-04-22 12:17 -1.83268 35.09695 31082 ft 478 kts 256°
2026-04-22 12:18 -1.84019 35.06490 31306 ft 479 kts 255°
2026-04-22 12:18 -1.84784 35.03234 31535 ft 480 kts 255°
2026-04-22 12:18 -1.85547 34.99984 31779 ft 481 kts 255°
2026-04-22 12:18 -1.86338 34.96735 32010 ft 481 kts 254°
2026-04-22 12:19 -1.87226 34.93505 32241 ft 482 kts 253°
2026-04-22 12:19 -1.88162 34.90286 32491 ft 483 kts 252°
2026-04-22 12:19 -1.89115 34.87053 32743 ft 483 kts 252°
2026-04-22 12:19 -1.90061 34.83829 32983 ft 484 kts 252°
2026-04-22 12:20 -1.90998 34.80597 33241 ft 485 kts 252°
2026-04-22 12:20 -1.91929 34.77348 33502 ft 485 kts 252°
2026-04-22 12:20 -1.92840 34.74143 33743 ft 486 kts 252°
2026-04-22 12:20 -1.93764 34.70878 33985 ft 487 kts 253°
2026-04-22 12:21 -1.94684 34.67619 34209 ft 487 kts 253°
2026-04-22 12:21 -1.95605 34.64355 34433 ft 488 kts 253°
2026-04-22 12:21 -1.96526 34.61088 34654 ft 488 kts 252°
2026-04-22 12:21 -1.97449 34.57822 34885 ft 489 kts 253°
2026-04-22 12:22 -1.98374 34.54547 35117 ft 489 kts 253°
2026-04-22 12:22 -1.99298 34.51274 35341 ft 489 kts 252°
2026-04-22 12:22 -2.00214 34.48032 35566 ft 489 kts 253°
2026-04-22 12:22 -2.01138 34.44762 35806 ft 489 kts 253°
2026-04-22 12:23 -2.02082 34.41495 36054 ft 488 kts 251°
2026-04-22 12:23 -2.03147 34.38269 36291 ft 488 kts 250°
2026-04-22 12:23 -2.04284 34.35071 36545 ft 487 kts 249°
2026-04-22 12:23 -2.05441 34.31889 36794 ft 487 kts 249°
2026-04-22 12:24 -2.06594 34.28706 37033 ft 486 kts 249°
2026-04-22 12:24 -2.07731 34.25526 37277 ft 485 kts 250°
2026-04-22 12:24 -2.08816 34.22330 37539 ft 485 kts 252°
2026-04-22 12:24 -2.09743 34.19138 37789 ft 484 kts 254°
2026-04-22 12:25 -2.10606 34.15888 38049 ft 483 kts 255°
2026-04-22 12:25 -2.11445 34.12646 38316 ft 481 kts 255°
2026-04-22 12:25 -2.12290 34.09411 38582 ft 480 kts 253°
2026-04-22 12:25 -2.13176 34.06202 38815 ft 477 kts 252°
2026-04-22 12:26 -2.14092 34.03019 39042 ft 475 kts 252°
2026-04-22 12:26 -2.14999 33.99850 39277 ft 473 kts 254°
2026-04-22 12:26 -2.15859 33.96683 39522 ft 471 kts 255°
2026-04-22 12:26 -2.16700 33.93524 39755 ft 469 kts 255°
2026-04-22 12:27 -2.17540 33.90378 39927 ft 469 kts 255°
2026-04-22 12:27 -2.18392 33.87219 39952 ft 472 kts 254°
2026-04-22 12:27 -2.20140 33.80839 39950 ft 479 kts 254°
2026-04-22 12:28 -2.21918 33.74413 39953 ft 484 kts 254°
2026-04-22 12:28 -2.23715 33.67922 39954 ft 482 kts 254°
2026-04-22 12:29 -2.25506 33.61449 39957 ft 482 kts 254°
2026-04-22 12:29 -2.27281 33.55030 39957 ft 482 kts 254°
2026-04-22 12:30 -2.29965 33.45318 39978 ft 482 kts 254°
2026-04-22 12:31 -2.31753 33.38847 39976 ft 482 kts 254°
2026-04-22 12:31 -2.33542 33.32372 39980 ft 482 kts 254°
2026-04-22 12:32 -2.35319 33.25939 39985 ft 482 kts 254°
2026-04-22 12:32 -2.38000 33.16229 40001 ft 482 kts 254°
2026-04-22 12:33 -2.39785 33.09762 40010 ft 483 kts 254°
2026-04-22 12:33 -2.41565 33.03317 40020 ft 483 kts 254°
2026-04-22 12:34 -2.43351 32.96846 40020 ft 483 kts 254°
2026-04-22 12:34 -2.45102 32.90359 40020 ft 483 kts 256°
2026-04-22 12:35 -2.46537 32.83788 40020 ft 483 kts 257°
2026-04-22 12:35 -2.47894 32.77207 39975 ft 483 kts 257°
2026-04-22 12:36 -2.49293 32.70663 39960 ft 483 kts 256°
2026-04-22 12:36 -2.50910 32.64142 39960 ft 483 kts 254°
2026-04-22 12:37 -2.52632 32.57632 39940 ft 482 kts 254°
2026-04-22 12:37 -2.54313 32.51186 39942 ft 482 kts 255°
2026-04-22 12:38 -2.55979 32.44684 39924 ft 482 kts 255°
2026-04-22 12:38 -2.57633 32.38188 39906 ft 482 kts 255°
2026-04-22 12:39 -2.60116 32.28436 39889 ft 481 kts 255°
2026-04-22 12:40 -2.61758 32.21993 39888 ft 481 kts 255°
2026-04-22 12:40 -2.63141 32.16564 39875 ft 481 kts 255°
2026-04-22 12:41 -2.65064 32.09018 39873 ft 481 kts 255°
2026-04-22 12:41 -2.66438 32.03619 39877 ft 482 kts 255°
2026-04-22 12:42 -2.68094 31.97116 39873 ft 483 kts 255°
2026-04-22 12:42 -2.69755 31.90588 39873 ft 483 kts 255°
2026-04-22 12:43 -2.71413 31.84075 39872 ft 483 kts 255°
2026-04-22 12:43 -2.73062 31.77593 39878 ft 483 kts 255°
2026-04-22 12:44 -2.74717 31.71086 39879 ft 482 kts 255°
2026-04-22 12:44 -2.76371 31.64583 39880 ft 482 kts 255°
2026-04-22 12:45 -2.78017 31.58108 39881 ft 482 kts 255°
2026-04-22 12:45 -2.79672 31.51596 39874 ft 482 kts 254°
2026-04-22 12:46 -2.81324 31.45095 39878 ft 482 kts 254°
2026-04-22 12:46 -2.82976 31.38592 39878 ft 482 kts 254°
2026-04-22 12:47 -2.84620 31.32119 39879 ft 482 kts 254°
2026-04-22 12:47 -2.86272 31.25615 39883 ft 482 kts 254°
2026-04-22 12:48 -2.87925 31.19101 39889 ft 483 kts 254°
2026-04-22 12:48 -2.89579 31.12586 39890 ft 483 kts 254°
2026-04-22 12:49 -2.91233 31.06065 39899 ft 483 kts 254°
2026-04-22 12:49 -2.92885 30.99553 39898 ft 483 kts 255°
2026-04-22 12:50 -2.94536 30.93039 39901 ft 483 kts 254°
2026-04-22 12:50 -2.96180 30.86557 39904 ft 484 kts 254°
2026-04-22 12:51 -2.97833 30.80037 39903 ft 484 kts 254°
2026-04-22 12:51 -2.99477 30.73505 39905 ft 484 kts 254°
2026-04-22 12:52 -3.01102 30.66975 39903 ft 484 kts 254°
2026-04-22 12:52 -3.02729 30.60437 39919 ft 484 kts 254°
2026-04-22 12:53 -3.04358 30.53901 39918 ft 484 kts 255°
2026-04-22 12:53 -3.05987 30.47371 39922 ft 484 kts 254°
2026-04-22 12:54 -3.07614 30.40846 39921 ft 483 kts 255°
2026-04-22 12:54 -3.09232 30.34354 39921 ft 483 kts 254°
2026-04-22 12:55 -3.10861 30.27822 39924 ft 483 kts 254°
2026-04-22 12:55 -3.12491 30.21280 39925 ft 483 kts 255°
2026-04-22 12:56 -3.14106 30.14791 39926 ft 483 kts 254°
2026-04-22 12:56 -3.15733 30.08262 39925 ft 484 kts 254°
2026-04-22 12:57 -3.17360 30.01726 39942 ft 484 kts 254°
2026-04-22 12:57 -3.18990 29.95176 39939 ft 484 kts 254°
2026-04-22 12:58 -3.20617 29.88637 39950 ft 484 kts 254°
2026-04-22 12:58 -3.22243 29.82098 39949 ft 484 kts 254°
2026-04-22 12:59 -3.23871 29.75554 39949 ft 484 kts 254°
2026-04-22 12:59 -3.25488 29.69052 39942 ft 485 kts 254°
2026-04-22 13:00 -3.27115 29.62502 39943 ft 484 kts 254°
2026-04-22 13:00 -3.28742 29.55950 39930 ft 485 kts 254°
2026-04-22 13:01 -3.30368 29.49404 39930 ft 485 kts 255°
2026-04-22 13:01 -3.31987 29.42880 39919 ft 485 kts 255°
2026-04-22 13:02 -3.33616 29.36318 39940 ft 485 kts 255°
2026-04-22 13:02 -3.35555 29.29871 39939 ft 484 kts 248°
2026-04-22 13:03 -3.37900 29.23551 39948 ft 483 kts 248°
2026-04-22 13:03 -3.40297 29.17272 39948 ft 483 kts 248°
2026-04-22 13:04 -3.42699 29.10992 39959 ft 483 kts 248°
2026-04-22 13:04 -3.45081 29.04740 39959 ft 483 kts 248°
2026-04-22 13:05 -3.47474 28.98446 39966 ft 483 kts 247°
2026-04-22 13:05 -3.49851 28.92203 39964 ft 483 kts 246°
2026-04-22 13:06 -3.52255 28.85903 39965 ft 484 kts 247°
2026-04-22 13:06 -3.54655 28.79614 39967 ft 483 kts 248°
2026-04-22 13:07 -3.57057 28.73316 39944 ft 483 kts 247°
2026-04-22 13:07 -3.59457 28.67024 39943 ft 484 kts 247°
2026-04-22 13:08 -3.61858 28.60733 39918 ft 485 kts 248°
2026-04-22 13:08 -3.64243 28.54463 39896 ft 485 kts 248°
2026-04-22 13:09 -3.66645 28.48137 39892 ft 485 kts 248°
2026-04-22 13:09 -3.69046 28.41820 39877 ft 485 kts 248°
2026-04-22 13:10 -3.71452 28.35492 39870 ft 485 kts 248°
2026-04-22 13:10 -3.73845 28.29198 39859 ft 487 kts 248°
2026-04-22 13:11 -3.76258 28.22850 39857 ft 487 kts 247°
2026-04-22 13:11 -3.78669 28.16503 39846 ft 488 kts 247°
2026-04-22 13:12 -3.81080 28.10156 39846 ft 487 kts 248°
2026-04-22 13:12 -3.83492 28.03804 39827 ft 487 kts 248°
2026-04-22 13:13 -3.85905 27.97447 39825 ft 487 kts 248°
2026-04-22 13:13 -3.88298 27.91143 39826 ft 487 kts 248°
2026-04-22 13:14 -3.90706 27.84799 39829 ft 487 kts 248°
2026-04-22 13:14 -3.93109 27.78464 39810 ft 487 kts 248°
2026-04-22 13:15 -3.95517 27.72113 39809 ft 487 kts 248°
2026-04-22 13:15 -3.97922 27.65772 39803 ft 487 kts 248°
2026-04-22 13:16 -4.00327 27.59428 39794 ft 487 kts 248°
2026-04-22 13:16 -4.02719 27.53116 39792 ft 487 kts 248°
2026-04-22 13:17 -4.05120 27.46778 39785 ft 487 kts 248°
2026-04-22 13:17 -4.07521 27.40438 39785 ft 487 kts 248°
2026-04-22 13:18 -4.09932 27.34071 39779 ft 488 kts 248°
2026-04-22 13:18 -4.12337 27.27718 39780 ft 488 kts 248°
2026-04-22 13:19 -4.14736 27.21365 39773 ft 488 kts 248°
2026-04-22 13:19 -4.17115 27.15000 39772 ft 488 kts 248°
2026-04-22 13:20 -4.19491 27.08642 39769 ft 487 kts 248°
2026-04-22 13:20 -4.21870 27.02286 39767 ft 487 kts 248°
2026-04-22 13:21 -4.24239 26.95959 39766 ft 487 kts 248°
2026-04-22 13:21 -4.26618 26.89604 39765 ft 487 kts 248°
2026-04-22 13:22 -4.28998 26.83245 39763 ft 487 kts 248°
2026-04-22 13:22 -4.31383 26.76886 39763 ft 487 kts 248°
2026-04-22 13:23 -4.33780 26.70535 39760 ft 487 kts 248°
2026-04-22 13:23 -4.36178 26.64184 39757 ft 487 kts 248°
2026-04-22 13:24 -4.38562 26.57863 39751 ft 487 kts 248°
2026-04-22 13:24 -4.40958 26.51504 39751 ft 487 kts 248°
2026-04-22 13:25 -4.43353 26.45144 39751 ft 487 kts 248°
2026-04-22 13:25 -4.45747 26.38787 39753 ft 487 kts 248°
2026-04-22 13:26 -4.48122 26.32478 39755 ft 487 kts 248°
2026-04-22 13:26 -4.50515 26.26119 39753 ft 487 kts 248°
2026-04-22 13:27 -4.52902 26.19775 39752 ft 487 kts 248°
2026-04-22 13:27 -4.54893 26.14495 39752 ft 487 kts 248°
2026-04-22 13:28 -4.57279 26.08148 39746 ft 487 kts 248°
2026-04-22 13:28 -4.60054 26.00763 39752 ft 487 kts 248°
2026-04-22 13:29 -4.62041 25.95478 39752 ft 487 kts 248°
2026-04-22 13:29 -4.64430 25.89123 39754 ft 487 kts 248°
2026-04-22 13:30 -4.66821 25.82761 39750 ft 487 kts 248°
2026-04-22 13:30 -4.69209 25.76404 39756 ft 487 kts 248°
2026-04-22 13:31 -4.71599 25.70039 39755 ft 487 kts 248°
2026-04-22 13:31 -4.73988 25.63674 39753 ft 487 kts 248°
2026-04-22 13:32 -4.76364 25.57346 39758 ft 487 kts 248°
2026-04-22 13:32 -4.78751 25.50982 39767 ft 487 kts 248°
2026-04-22 13:33 -4.81138 25.44618 39754 ft 487 kts 248°
2026-04-22 13:33 -4.83522 25.38260 39753 ft 487 kts 248°
2026-04-22 13:34 -4.85907 25.31897 39751 ft 487 kts 248°
2026-04-22 13:34 -4.88294 25.25528 39752 ft 488 kts 248°
2026-04-22 13:35 -4.90665 25.19200 39751 ft 488 kts 248°
2026-04-22 13:35 -4.93054 25.12820 39753 ft 488 kts 248°
2026-04-22 13:36 -4.95442 25.06440 39750 ft 488 kts 248°
2026-04-22 13:36 -4.97826 25.00069 39749 ft 488 kts 248°
2026-04-22 13:37 -5.00213 24.93689 39763 ft 489 kts 248°
2026-04-22 13:37 -5.02606 24.87288 39747 ft 490 kts 248°
2026-04-22 13:38 -5.04985 24.80925 39756 ft 490 kts 248°
2026-04-22 13:38 -5.08572 24.71326 39761 ft 490 kts 248°
2026-04-22 13:39 -5.10968 24.64911 39748 ft 490 kts 248°
2026-04-22 13:39 -5.13356 24.58517 39753 ft 490 kts 248°
2026-04-22 13:40 -5.15732 24.52152 39748 ft 490 kts 248°
2026-04-22 13:40 -5.18122 24.45747 39761 ft 489 kts 248°
2026-04-22 13:41 -5.20511 24.39343 39753 ft 489 kts 248°
2026-04-22 13:41 -5.22897 24.32943 39749 ft 488 kts 249°
2026-04-22 13:42 -5.25259 24.26607 39747 ft 488 kts 248°
2026-04-22 13:42 -5.27641 24.20216 39744 ft 488 kts 248°
2026-04-22 13:43 -5.30010 24.13850 39764 ft 487 kts 248°
2026-04-22 13:43 -5.32362 24.07465 39746 ft 488 kts 249°
2026-04-22 13:44 -5.34712 24.01069 39757 ft 489 kts 249°
2026-04-22 13:44 -5.37067 23.94667 39756 ft 489 kts 248°
2026-04-22 13:45 -5.39434 23.88275 39758 ft 489 kts 249°
2026-04-22 13:45 -5.41795 23.81907 39746 ft 489 kts 248°
2026-04-22 13:46 -5.44168 23.75504 39739 ft 489 kts 248°
2026-04-22 13:46 -5.46542 23.69094 39753 ft 489 kts 249°
2026-04-22 13:47 -5.48912 23.62690 39750 ft 490 kts 249°
2026-04-22 13:47 -5.51268 23.56320 39736 ft 490 kts 249°
2026-04-22 13:48 -5.53643 23.49901 39742 ft 490 kts 248°
2026-04-22 13:48 -5.56005 23.43486 39757 ft 490 kts 249°
2026-04-22 13:49 -5.58292 23.37036 39749 ft 491 kts 250°
2026-04-22 13:49 -5.60566 23.30559 39755 ft 491 kts 250°
2026-04-22 13:50 -5.62836 23.24128 39760 ft 490 kts 250°
2026-04-22 13:50 -5.65122 23.17677 39749 ft 490 kts 250°
2026-04-22 13:51 -5.67414 23.11212 39746 ft 490 kts 249°
2026-04-22 13:51 -5.69706 23.04741 39760 ft 492 kts 249°
2026-04-22 13:52 -5.71987 22.98303 39748 ft 492 kts 249°
2026-04-22 13:52 -5.74283 22.91816 39755 ft 492 kts 249°
2026-04-22 13:53 -5.76577 22.85334 39749 ft 492 kts 249°
2026-04-22 13:53 -5.78868 22.78856 39766 ft 492 kts 249°
2026-04-22 13:54 -5.81163 22.72366 39761 ft 492 kts 249°
2026-04-22 13:54 -5.83454 22.65881 39754 ft 493 kts 250°
2026-04-22 13:55 -5.85729 22.59441 39742 ft 492 kts 250°
2026-04-22 13:55 -5.88021 22.52953 39756 ft 492 kts 249°
2026-04-22 13:56 -5.90309 22.46468 39756 ft 492 kts 250°
2026-04-22 13:56 -5.92511 22.39935 39738 ft 494 kts 251°
2026-04-22 13:57 -5.94653 22.33383 39753 ft 493 kts 251°
2026-04-22 13:57 -5.96807 22.26828 39749 ft 493 kts 251°
2026-04-22 13:58 -5.98962 22.20316 39753 ft 494 kts 251°
2026-04-22 13:58 -6.01131 22.13778 39762 ft 493 kts 251°
2026-04-22 13:59 -6.03301 22.07236 39754 ft 493 kts 251°
2026-04-22 13:59 -6.05471 22.00687 39742 ft 494 kts 251°
2026-04-22 14:00 -6.07643 21.94128 39756 ft 494 kts 251°
2026-04-22 14:00 -6.09797 21.87620 39759 ft 494 kts 251°
2026-04-22 14:01 -6.11968 21.81057 39756 ft 494 kts 251°
2026-04-22 14:01 -6.14123 21.74541 39760 ft 493 kts 251°
2026-04-22 14:02 -6.16288 21.67991 39758 ft 493 kts 251°
2026-04-22 14:02 -6.18387 21.61430 39761 ft 493 kts 252°
2026-04-22 14:03 -6.20394 21.54820 39755 ft 493 kts 252°
2026-04-22 14:03 -6.22398 21.48222 39767 ft 493 kts 252°
2026-04-22 14:04 -6.24403 21.41678 39765 ft 493 kts 252°
2026-04-22 14:04 -6.26433 21.35080 39771 ft 493 kts 252°
2026-04-22 14:05 -6.28464 21.28477 39751 ft 493 kts 252°
2026-04-22 14:06 -6.31491 21.18628 39770 ft 493 kts 252°
2026-04-22 14:06 -6.33516 21.12032 39762 ft 493 kts 252°
2026-04-22 14:07 -6.35543 21.05428 39762 ft 495 kts 252°
2026-04-22 14:07 -6.37575 20.98806 39757 ft 495 kts 252°
2026-04-22 14:08 -6.39592 20.92226 39762 ft 495 kts 252°
2026-04-22 14:08 -6.41619 20.85612 39757 ft 495 kts 252°
2026-04-22 14:09 -6.43646 20.78999 39754 ft 494 kts 252°
2026-04-22 14:09 -6.45778 20.72418 39756 ft 495 kts 251°
2026-04-22 14:10 -6.47970 20.65853 39757 ft 495 kts 251°
2026-04-22 14:10 -6.50134 20.59337 39758 ft 495 kts 251°
2026-04-22 14:11 -6.52298 20.52768 39754 ft 494 kts 251°
2026-04-22 14:11 -6.54455 20.46197 39757 ft 495 kts 251°
2026-04-22 14:12 -6.56613 20.39621 39757 ft 495 kts 251°
2026-04-22 14:12 -6.58770 20.33047 39759 ft 495 kts 251°
2026-04-22 14:13 -6.60926 20.26474 39757 ft 494 kts 251°
2026-04-22 14:13 -6.63070 20.19934 39760 ft 495 kts 251°
2026-04-22 14:14 -6.65227 20.13353 39758 ft 495 kts 251°
2026-04-22 14:14 -6.67381 20.06777 39763 ft 495 kts 251°
2026-04-22 14:15 -6.69540 20.00182 39762 ft 496 kts 251°
2026-04-22 14:15 -6.71680 19.93643 39763 ft 496 kts 251°
2026-04-22 14:16 -6.73488 19.88112 39763 ft 495 kts 251°
2026-04-22 14:16 -6.75630 19.81560 39765 ft 496 kts 251°
2026-04-22 14:17 -6.77787 19.74965 39768 ft 496 kts 251°
2026-04-22 14:17 -6.79936 19.68379 39767 ft 495 kts 251°
2026-04-22 14:18 -6.82077 19.61791 39771 ft 494 kts 251°
2026-04-22 14:18 -6.84213 19.55219 39773 ft 494 kts 251°
2026-04-22 14:19 -6.86351 19.48642 39777 ft 494 kts 251°
2026-04-22 14:19 -6.88475 19.42108 39781 ft 494 kts 252°
2026-04-22 14:20 -6.91684 19.32249 39779 ft 494 kts 251°
2026-04-22 14:20 -6.93860 19.25684 39778 ft 494 kts 251°
2026-04-22 14:21 -6.97133 19.15840 39780 ft 494 kts 251°
2026-04-22 14:22 -7.00382 19.06035 39790 ft 494 kts 251°
2026-04-22 14:23 -7.03639 18.96189 39790 ft 494 kts 251°
2026-04-22 14:23 -7.05818 18.89600 39793 ft 494 kts 251°
2026-04-22 14:24 -7.07991 18.83025 39803 ft 495 kts 251°
2026-04-22 14:24 -7.10147 18.76497 39799 ft 494 kts 251°
2026-04-22 14:25 -7.12320 18.69916 39797 ft 494 kts 251°
2026-04-22 14:25 -7.14487 18.63350 39802 ft 494 kts 251°
2026-04-22 14:26 -7.16652 18.56784 39805 ft 494 kts 251°
2026-04-22 14:26 -7.18816 18.50216 39805 ft 494 kts 252°
2026-04-22 14:27 -7.20913 18.43625 39801 ft 494 kts 252°
2026-04-22 14:27 -7.22960 18.37059 39804 ft 494 kts 252°
2026-04-22 14:28 -7.25020 18.30477 39811 ft 493 kts 252°
2026-04-22 14:28 -7.27088 18.23903 39808 ft 492 kts 252°
2026-04-22 14:29 -7.29162 18.17315 39803 ft 493 kts 252°
2026-04-22 14:29 -7.31248 18.10734 39804 ft 493 kts 251°
2026-04-22 14:30 -7.33369 18.04170 39804 ft 492 kts 251°
2026-04-22 14:30 -7.35479 17.97650 39800 ft 492 kts 251°
2026-04-22 14:31 -7.37599 17.91076 39799 ft 493 kts 252°
2026-04-22 14:31 -7.39713 17.84510 39797 ft 493 kts 252°
2026-04-22 14:32 -7.41827 17.77938 39791 ft 492 kts 251°
2026-04-22 14:32 -7.43937 17.71375 39791 ft 492 kts 252°
2026-04-22 14:33 -7.46032 17.64853 39787 ft 492 kts 252°
2026-04-22 14:33 -7.48137 17.58299 39789 ft 491 kts 252°
2026-04-22 14:34 -7.50244 17.51738 39787 ft 491 kts 252°
2026-04-22 14:34 -7.52347 17.45180 39784 ft 492 kts 252°
2026-04-22 14:35 -7.54439 17.38655 39783 ft 492 kts 252°
2026-04-22 14:35 -7.56546 17.32083 39780 ft 492 kts 252°
2026-04-22 14:36 -7.58654 17.25507 39782 ft 493 kts 252°
2026-04-22 14:36 -7.60739 17.18979 39784 ft 493 kts 252°
2026-04-22 14:37 -7.62843 17.12391 39781 ft 492 kts 252°
2026-04-22 14:37 -7.64945 17.05809 39779 ft 492 kts 252°
2026-04-22 14:38 -7.67046 16.99228 39782 ft 493 kts 252°
2026-04-22 14:38 -7.69136 16.92678 39777 ft 493 kts 252°
2026-04-22 14:39 -7.71236 16.86089 39788 ft 492 kts 252°
2026-04-22 14:39 -7.73321 16.79548 39787 ft 493 kts 252°
2026-04-22 14:40 -7.76463 16.69680 39789 ft 493 kts 252°
2026-04-22 14:40 -7.78559 16.63095 39790 ft 492 kts 252°
2026-04-22 14:41 -7.80639 16.56554 39795 ft 492 kts 252°
2026-04-22 14:41 -7.82729 16.49979 39795 ft 491 kts 252°
2026-04-22 14:42 -7.84816 16.43409 39805 ft 492 kts 252°
2026-04-22 14:42 -7.86890 16.36876 39811 ft 492 kts 252°
2026-04-22 14:43 -7.88975 16.30303 39819 ft 493 kts 252°
2026-04-22 14:43 -7.91077 16.23675 39814 ft 495 kts 252°
2026-04-22 14:44 -7.93174 16.17057 39826 ft 496 kts 252°
2026-04-22 14:44 -7.95260 16.10473 39825 ft 496 kts 252°
2026-04-22 14:45 -7.97359 16.03839 39834 ft 495 kts 252°
2026-04-22 14:45 -7.99459 15.97203 39834 ft 495 kts 252°
2026-04-22 14:46 -8.01553 15.90581 39845 ft 495 kts 252°
2026-04-22 14:46 -8.03642 15.83966 39840 ft 494 kts 252°
2026-04-22 14:47 -8.05729 15.77356 39644 ft 494 kts 252°
2026-04-22 14:47 -8.06761 15.74088 39414 ft 496 kts 252°
2026-04-22 14:47 -8.07811 15.70761 39180 ft 497 kts 252°
2026-04-22 14:48 -8.08859 15.67439 38950 ft 497 kts 252°
2026-04-22 14:48 -8.09908 15.64112 38721 ft 499 kts 252°
2026-04-22 14:48 -8.10966 15.60754 38495 ft 500 kts 253°
2026-04-22 14:48 -8.12009 15.57446 38223 ft 500 kts 252°
2026-04-22 14:49 -8.13065 15.54092 37946 ft 502 kts 252°
2026-04-22 14:49 -8.14120 15.50741 37548 ft 499 kts 252°
2026-04-22 14:49 -8.15167 15.47414 36927 ft 497 kts 252°
2026-04-22 14:49 -8.16215 15.44082 36270 ft 496 kts 252°
2026-04-22 14:50 -8.17260 15.40761 35602 ft 496 kts 252°
2026-04-22 14:50 -8.18307 15.37433 34907 ft 497 kts 252°
2026-04-22 14:50 -8.19354 15.34102 34311 ft 496 kts 252°
2026-04-22 14:50 -8.20391 15.30802 33797 ft 492 kts 251°
2026-04-22 14:51 -8.21423 15.27516 33223 ft 489 kts 251°
2026-04-22 14:51 -8.22449 15.24249 32693 ft 486 kts 251°
2026-04-22 14:51 -8.23451 15.21059 32172 ft 482 kts 251°
2026-04-22 14:51 -8.24461 15.17842 31673 ft 478 kts 251°
2026-04-22 14:52 -8.25468 15.14642 31162 ft 475 kts 251°
2026-04-22 14:52 -8.26463 15.11474 30679 ft 471 kts 251°
2026-04-22 14:52 -8.27448 15.08332 30178 ft 468 kts 251°
2026-04-22 14:52 -8.28427 15.05208 29656 ft 465 kts 251°
2026-04-22 14:53 -8.29399 15.02105 29116 ft 460 kts 251°
2026-04-22 14:53 -8.30350 14.99070 28626 ft 456 kts 251°
2026-04-22 14:53 -8.31306 14.96020 28136 ft 452 kts 251°
2026-04-22 14:53 -8.32250 14.93007 27660 ft 447 kts 251°
2026-04-22 14:54 -8.33184 14.90027 27172 ft 444 kts 251°
2026-04-22 14:54 -8.34114 14.87056 26686 ft 442 kts 251°
2026-04-22 14:54 -8.35038 14.84106 26207 ft 439 kts 251°
2026-04-22 14:54 -8.35956 14.81174 25714 ft 437 kts 251°
2026-04-22 14:55 -8.36857 14.78296 25241 ft 435 kts 251°
2026-04-22 14:55 -8.37766 14.75390 24753 ft 432 kts 252°
2026-04-22 14:55 -8.38669 14.72502 24266 ft 430 kts 252°
2026-04-22 14:55 -8.39571 14.69617 23775 ft 428 kts 252°
2026-04-22 14:56 -8.40464 14.66757 23242 ft 426 kts 252°
2026-04-22 14:56 -8.41351 14.63916 22720 ft 423 kts 252°
2026-04-22 14:56 -8.42233 14.61093 22228 ft 419 kts 252°
2026-04-22 14:56 -8.43105 14.58298 21742 ft 415 kts 252°
2026-04-22 14:57 -8.43963 14.55550 21260 ft 414 kts 252°
2026-04-22 14:57 -8.44661 14.52743 20756 ft 411 kts 259°
2026-04-22 14:57 -8.45172 14.49911 20292 ft 408 kts 260°
2026-04-22 14:57 -8.45647 14.47092 19803 ft 405 kts 260°
2026-04-22 14:58 -8.46108 14.44292 19334 ft 402 kts 261°
2026-04-22 14:58 -8.46561 14.41509 18852 ft 399 kts 261°
2026-04-22 14:58 -8.47010 14.38735 18380 ft 398 kts 261°
2026-04-22 14:58 -8.47453 14.35994 17874 ft 395 kts 261°
2026-04-22 14:59 -8.47893 14.33263 17380 ft 391 kts 261°
2026-04-22 14:59 -8.48321 14.30600 16912 ft 387 kts 261°
2026-04-22 14:59 -8.48756 14.27898 16441 ft 384 kts 261°
2026-04-22 14:59 -8.49176 14.25281 15994 ft 380 kts 261°
2026-04-22 15:00 -8.49597 14.22655 15528 ft 377 kts 261°
2026-04-22 15:00 -8.50015 14.20053 15070 ft 373 kts 261°
2026-04-22 15:00 -8.50430 14.17465 14618 ft 370 kts 261°
2026-04-22 15:00 -8.50840 14.14912 14168 ft 367 kts 261°
2026-04-22 15:01 -8.51246 14.12377 13736 ft 364 kts 261°
2026-04-22 15:01 -8.51648 14.09865 13236 ft 361 kts 261°
2026-04-22 15:01 -8.52043 14.07399 12804 ft 357 kts 261°
2026-04-22 15:01 -8.52438 14.04935 12366 ft 354 kts 261°
2026-04-22 15:02 -8.52829 14.02493 11928 ft 351 kts 261°
2026-04-22 15:02 -8.53216 14.00070 11497 ft 348 kts 261°
2026-04-22 15:02 -8.53602 13.97662 11066 ft 345 kts 261°
2026-04-22 15:02 -8.53985 13.95267 10635 ft 344 kts 261°
2026-04-22 15:03 -8.54358 13.92926 10480 ft 331 kts 261°
2026-04-22 15:03 -8.54713 13.90701 10378 ft 317 kts 261°
2026-04-22 15:03 -8.55057 13.88547 10230 ft 305 kts 261°
2026-04-22 15:03 -8.55394 13.86432 9885 ft 304 kts 261°
2026-04-22 15:04 -8.55730 13.84326 9515 ft 305 kts 261°
2026-04-22 15:04 -8.56070 13.82199 9184 ft 307 kts 261°
2026-04-22 15:04 -8.56410 13.80067 8849 ft 306 kts 261°
2026-04-22 15:04 -8.56747 13.77951 8515 ft 304 kts 261°
2026-04-22 15:05 -8.56970 13.76552 8300 ft 303 kts 261°
2026-04-22 15:05 -8.57303 13.74458 7976 ft 301 kts 261°
2026-04-22 15:05 -8.57635 13.72373 7673 ft 298 kts 261°
2026-04-22 15:05 -8.57958 13.70349 7498 ft 286 kts 261°
2026-04-22 15:06 -8.58267 13.68404 7355 ft 275 kts 261°
2026-04-22 15:06 -8.58564 13.66537 7238 ft 264 kts 261°
2026-04-22 15:06 -8.58849 13.64746 7192 ft 253 kts 261°
2026-04-22 15:06 -8.59120 13.63033 7127 ft 240 kts 261°
2026-04-22 15:07 -8.59377 13.61420 7067 ft 224 kts 261°
2026-04-22 15:07 -8.59617 13.59910 6971 ft 211 kts 261°
2026-04-22 15:07 -8.59842 13.58493 6862 ft 198 kts 261°
2026-04-22 15:07 -8.60050 13.57180 6791 ft 185 kts 261°
2026-04-22 15:08 -8.60247 13.55940 6680 ft 174 kts 261°
2026-04-22 15:08 -8.60442 13.54708 6290 ft 183 kts 261°
2026-04-22 15:08 -8.60651 13.53391 5784 ft 196 kts 261°
2026-04-22 15:08 -8.60870 13.52009 5392 ft 200 kts 261°
2026-04-22 15:09 -8.61099 13.50629 5142 ft 197 kts 258°
2026-04-22 15:09 -8.61593 13.49358 4977 ft 194 kts 234°
2026-04-22 15:09 -8.62470 13.48333 4875 ft 193 kts 221°
2026-04-22 15:09 -8.63448 13.47391 4778 ft 193 kts 223°
2026-04-22 15:10 -8.64391 13.46421 4689 ft 192 kts 225°
2026-04-22 15:10 -8.65298 13.45452 4577 ft 193 kts 225°
2026-04-22 15:10 -8.66221 13.44462 4461 ft 194 kts 224°
2026-04-22 15:10 -8.67148 13.43469 4370 ft 193 kts 225°
2026-04-22 15:11 -8.68067 13.42482 4257 ft 193 kts 224°
2026-04-22 15:11 -8.68977 13.41503 4157 ft 186 kts 225°
2026-04-22 15:11 -8.69845 13.40566 4062 ft 181 kts 224°
2026-04-22 15:11 -8.70703 13.39644 3958 ft 179 kts 224°
2026-04-22 15:12 -8.71550 13.38732 3877 ft 178 kts 223°
2026-04-22 15:12 -8.72385 13.37837 3815 ft 176 kts 224°
2026-04-22 15:12 -8.73230 13.36934 3659 ft 176 kts 225°
2026-04-22 15:12 -8.74067 13.36031 3426 ft 176 kts 225°
2026-04-22 15:13 -8.74905 13.35129 3189 ft 175 kts 223°
2026-04-22 15:13 -8.75731 13.34243 2951 ft 172 kts 224°
2026-04-22 15:13 -8.76548 13.33362 2730 ft 171 kts 225°
2026-04-22 15:13 -8.77349 13.32501 2516 ft 168 kts 224°
2026-04-22 15:14 -8.78157 13.31632 2311 ft 167 kts 224°
2026-04-22 15:14 -8.78943 13.30789 2078 ft 166 kts 226°
2026-04-22 15:14 -8.79732 13.29939 1876 ft 165 kts 225°
2026-04-22 15:14 -8.80509 13.29103 1661 ft 161 kts 226°
2026-04-22 15:15 -8.81242 13.28316 1454 ft 147 kts 226°
2026-04-22 15:15 -8.81905 13.27601 1288 ft 133 kts 228°
2026-04-22 15:15 -8.82527 13.26930 1118 ft 130 kts 226°
2026-04-22 15:15 -8.83139 13.26274 957 ft 124 kts 227°
2026-04-22 15:16 -8.83716 13.25654 813 ft 122 kts 230°
2026-04-22 15:16 -8.84295 13.25030 692 ft 121 kts 230°
2026-04-22 15:16 -8.84913 13.24367 541 ft 133 kts 230°
2026-04-22 15:16 -8.85628 13.23626 1051 ft 160 kts 225°
2026-04-22 15:17 -8.86429 13.22814 1719 ft 166 kts 225°
2026-04-22 15:17 -8.87265 13.21955 2163 ft 176 kts 225°
2026-04-22 15:17 -8.88138 13.21045 2619 ft 183 kts 225°
2026-04-22 15:17 -8.89026 13.20093 2924 ft 190 kts 224°
2026-04-22 15:18 -8.89836 13.19023 2993 ft 195 kts 244°
2026-04-22 15:18 -8.89978 13.17669 3002 ft 198 kts 281°
2026-04-22 15:18 -8.89335 13.16438 3004 ft 200 kts 309°
2026-04-22 15:18 -8.88413 13.15383 2994 ft 200 kts 313°
2026-04-22 15:19 -8.87451 13.14361 2991 ft 200 kts 314°
2026-04-22 15:19 -8.86537 13.13312 2995 ft 202 kts 308°
2026-04-22 15:19 -8.85768 13.12125 3028 ft 200 kts 298°
2026-04-22 15:19 -8.85151 13.10866 3027 ft 200 kts 293°
2026-04-22 15:20 -8.84628 13.09560 3030 ft 200 kts 290°
2026-04-22 15:20 -8.84162 13.08241 3029 ft 199 kts 288°
2026-04-22 15:20 -8.83727 13.06913 3027 ft 199 kts 287°
2026-04-22 15:20 -8.83308 13.05576 3009 ft 199 kts 287°
2026-04-22 15:21 -8.82870 13.04242 3009 ft 200 kts 291°
2026-04-22 15:21 -8.82094 13.03088 3011 ft 200 kts 318°
2026-04-22 15:21 -8.80869 13.02477 2998 ft 198 kts 353°
2026-04-22 15:21 -8.79592 13.02841 3011 ft 193 kts 40°
2026-04-22 15:22 -8.78726 13.03858 3016 ft 191 kts 56°
2026-04-22 15:22 -8.77932 13.04943 3018 ft 192 kts 54°
2026-04-22 15:22 -8.77096 13.05994 3014 ft 191 kts 51°
2026-04-22 15:22 -8.76227 13.07016 3021 ft 191 kts 50°
2026-04-22 15:23 -8.75347 13.08009 3024 ft 192 kts 49°
2026-04-22 15:23 -8.74442 13.09004 3026 ft 192 kts 50°
2026-04-22 15:23 -8.73532 13.09995 3032 ft 193 kts 48°
2026-04-22 15:23 -8.72618 13.10981 3025 ft 192 kts 48°
2026-04-22 15:24 -8.71702 13.11965 3022 ft 192 kts 49°
2026-04-22 15:24 -8.70789 13.12945 3003 ft 192 kts 48°
2026-04-22 15:24 -8.69871 13.13927 3004 ft 192 kts 49°
2026-04-22 15:24 -8.68951 13.14917 3005 ft 194 kts 49°
2026-04-22 15:25 -8.68021 13.15910 3002 ft 195 kts 50°
2026-04-22 15:25 -8.67088 13.16909 3002 ft 195 kts 49°
2026-04-22 15:25 -8.66170 13.17889 3007 ft 194 kts 49°
2026-04-22 15:25 -8.65244 13.18879 3008 ft 194 kts 50°
2026-04-22 15:26 -8.64317 13.19872 3009 ft 194 kts 49°
2026-04-22 15:26 -8.63393 13.20864 3008 ft 194 kts 49°
2026-04-22 15:26 -8.62460 13.21858 3010 ft 194 kts 49°
2026-04-22 15:26 -8.61533 13.22847 3003 ft 193 kts 49°
2026-04-22 15:27 -8.60611 13.23834 3010 ft 193 kts 50°
2026-04-22 15:27 -8.59686 13.24826 3010 ft 194 kts 48°
2026-04-22 15:27 -8.58742 13.25814 3018 ft 195 kts 49°
2026-04-22 15:27 -8.57789 13.26790 3016 ft 195 kts 47°
2026-04-22 15:28 -8.56851 13.27754 3026 ft 194 kts 47°
2026-04-22 15:28 -8.55915 13.28735 3009 ft 193 kts 49°
2026-04-22 15:28 -8.54969 13.29718 3017 ft 192 kts 47°
2026-04-22 15:28 -8.54045 13.30672 3014 ft 193 kts 49°
2026-04-22 15:29 -8.53192 13.31720 3005 ft 194 kts 64°
2026-04-22 15:29 -8.53011 13.33031 3015 ft 188 kts 102°
2026-04-22 15:29 -8.53558 13.34212 3022 ft 185 kts 124°
2026-04-22 15:30 -8.55052 13.36311 3023 ft 184 kts 127°
2026-04-22 15:30 -8.55820 13.37355 3025 ft 185 kts 128°
2026-04-22 15:30 -8.56583 13.38395 3014 ft 184 kts 127°
2026-04-22 15:30 -8.57346 13.39422 3020 ft 186 kts 127°
2026-04-22 15:31 -8.58127 13.40465 3021 ft 187 kts 127°
2026-04-22 15:31 -8.58906 13.41517 3014 ft 186 kts 127°
2026-04-22 15:31 -8.59680 13.42569 3015 ft 186 kts 127°
2026-04-22 15:31 -8.60607 13.43467 3012 ft 185 kts 147°
2026-04-22 15:32 -8.61827 13.43860 3016 ft 188 kts 178°
2026-04-22 15:32 -8.63092 13.43504 3013 ft 189 kts 203°
2026-04-22 15:32 -8.64316 13.43016 3017 ft 189 kts 196°
2026-04-22 15:32 -8.65541 13.42528 3018 ft 189 kts 201°
2026-04-22 15:33 -8.66722 13.41935 3010 ft 190 kts 208°
2026-04-22 15:33 -8.67851 13.41236 3000 ft 190 kts 208°
2026-04-22 15:33 -8.69014 13.40626 3007 ft 190 kts 202°
2026-04-22 15:33 -8.70194 13.40016 3007 ft 191 kts 209°
2026-04-22 15:34 -8.71235 13.39171 3007 ft 194 kts 223°
2026-04-22 15:34 -8.72122 13.38165 2998 ft 185 kts 225°
2026-04-22 15:34 -8.72955 13.37250 3005 ft 171 kts 223°
2026-04-22 15:34 -8.73761 13.36382 3005 ft 169 kts 224°
2026-04-22 15:35 -8.74295 13.35804 3010 ft 171 kts 224°
2026-04-22 15:35 -8.75386 13.34619 3006 ft 173 kts 224°
2026-04-22 15:35 -8.76200 13.33737 2853 ft 175 kts 225°
2026-04-22 15:35 -8.77046 13.32827 2626 ft 180 kts 225°
2026-04-22 15:36 -8.77920 13.31888 2366 ft 184 kts 226°
2026-04-22 15:36 -8.78800 13.30942 2120 ft 185 kts 225°
2026-04-22 15:36 -8.79677 13.29999 1898 ft 183 kts 226°
2026-04-22 15:36 -8.80541 13.29068 1659 ft 180 kts 226°
2026-04-22 15:37 -8.81386 13.28160 1409 ft 172 kts 227°
2026-04-22 15:37 -8.82172 13.27314 1212 ft 161 kts 227°
2026-04-22 15:37 -8.82919 13.26510 1016 ft 154 kts 226°
2026-04-22 15:37 -8.83619 13.25759 820 ft 137 kts 229°
2026-04-22 15:38 -8.84251 13.25077 666 ft 130 kts 229°
2026-04-22 15:38 -8.85464 13.23763 320 ft 126 kts 230°
2026-04-22 15:38 -8.86010 13.23164 254 ft 79 kts 225°
2026-04-22 15:39 -8.86219 13.22945 251 ft 35 kts 226°
2026-04-22 15:39 -8.86376 13.22780 251 ft 26 kts 223°
2026-04-22 15:39 -8.86399 13.22686 251 ft 4 kts 314°
2026-04-22 15:39 -8.86371 13.22681 251 ft 5 kts 358°
2026-04-22 15:40 -8.86283 13.22682 252 ft 15 kts
2026-04-22 15:40 -8.86188 13.22733 253 ft 20 kts 44°
2026-04-22 15:40 -8.86065 13.22864 253 ft 28 kts 48°
2026-04-22 15:40 -8.85927 13.23011 255 ft 30 kts 42°
2026-04-22 15:41 -8.85737 13.23059 256 ft 29 kts
2026-04-22 15:41 -8.85529 13.23064 256 ft 31 kts
2026-04-22 15:41 -8.85311 13.23070 257 ft 32 kts
2026-04-22 15:41 -8.85110 13.23107 255 ft 29 kts 41°
2026-04-22 15:42 -8.85039 13.23242 254 ft 19 kts 55°
2026-04-22 15:42 -8.84980 13.23362 253 ft 14 kts 70°
2026-04-22 15:42 -8.84942 13.23463 252 ft 14 kts 80°
2026-04-22 15:42 -8.84975 13.23507 252 ft 9 kts 158°
2026-04-22 15:43 -8.85036 13.23546 251 ft 12 kts 121°
2026-04-22 15:43 -8.85027 13.23614 250 ft 10 kts 68°
2026-04-22 15:43 -8.84995 13.23694 249 ft 14 kts 67°
2026-04-22 15:43 -8.84928 13.23726 250 ft 11 kts 336°
2026-04-22 15:44 -8.84912 13.23707 250 ft 0 kts 304°